Index of /20260501/WXO-DD/model_gdps/15km/00/228
Name Last modified Size Description
Parent Directory -
20260501T00Z_MSC_GDPS_AbsoluteVorticity_IsbL-0200_LatLon0.15_PT228H.grib2 2026-05-01 04:43 1.2M
20260501T00Z_MSC_GDPS_AbsoluteVorticity_IsbL-0250_LatLon0.15_PT228H.grib2 2026-05-01 04:43 1.3M
20260501T00Z_MSC_GDPS_AbsoluteVorticity_IsbL-0500_LatLon0.15_PT228H.grib2 2026-05-01 04:43 1.2M
20260501T00Z_MSC_GDPS_AbsoluteVorticity_IsbL-0700_LatLon0.15_PT228H.grib2 2026-05-01 04:43 1.3M
20260501T00Z_MSC_GDPS_AbsoluteVorticity_IsbL-0850_LatLon0.15_PT228H.grib2 2026-05-01 04:43 1.6M
20260501T00Z_MSC_GDPS_AirTemp-Max_AGL-2m_LatLon0.15_PT228H.grib2 2026-05-01 04:43 745K
20260501T00Z_MSC_GDPS_AirTemp-Min_AGL-2m_LatLon0.15_PT228H.grib2 2026-05-01 04:43 796K
20260501T00Z_MSC_GDPS_AirTemp_AGL-120m_LatLon0.15_PT228H.grib2 2026-05-01 04:43 912K
20260501T00Z_MSC_GDPS_AirTemp_AGL-2m_LatLon0.15_PT228H.grib2 2026-05-01 04:43 1.0M
20260501T00Z_MSC_GDPS_AirTemp_AGL-40m_LatLon0.15_PT228H.grib2 2026-05-01 04:43 816K
20260501T00Z_MSC_GDPS_AirTemp_AGL-80m_LatLon0.15_PT228H.grib2 2026-05-01 04:43 805K
20260501T00Z_MSC_GDPS_AirTemp_IsbL-0001_LatLon0.15_PT228H.grib2 2026-05-01 04:43 670K
20260501T00Z_MSC_GDPS_AirTemp_IsbL-0005_LatLon0.15_PT228H.grib2 2026-05-01 04:43 537K
20260501T00Z_MSC_GDPS_AirTemp_IsbL-0010_LatLon0.15_PT228H.grib2 2026-05-01 04:43 697K
20260501T00Z_MSC_GDPS_AirTemp_IsbL-0020_LatLon0.15_PT228H.grib2 2026-05-01 04:43 792K
20260501T00Z_MSC_GDPS_AirTemp_IsbL-0030_LatLon0.15_PT228H.grib2 2026-05-01 04:43 834K
20260501T00Z_MSC_GDPS_AirTemp_IsbL-0050_LatLon0.15_PT228H.grib2 2026-05-01 04:43 799K
20260501T00Z_MSC_GDPS_AirTemp_IsbL-0100_LatLon0.15_PT228H.grib2 2026-05-01 04:43 961K
20260501T00Z_MSC_GDPS_AirTemp_IsbL-0150_LatLon0.15_PT228H.grib2 2026-05-01 04:43 1.0M
20260501T00Z_MSC_GDPS_AirTemp_IsbL-0175_LatLon0.15_PT228H.grib2 2026-05-01 04:43 948K
20260501T00Z_MSC_GDPS_AirTemp_IsbL-0200_LatLon0.15_PT228H.grib2 2026-05-01 04:43 957K
20260501T00Z_MSC_GDPS_AirTemp_IsbL-0225_LatLon0.15_PT228H.grib2 2026-05-01 04:43 960K
20260501T00Z_MSC_GDPS_AirTemp_IsbL-0250_LatLon0.15_PT228H.grib2 2026-05-01 04:43 1.0M
20260501T00Z_MSC_GDPS_AirTemp_IsbL-0275_LatLon0.15_PT228H.grib2 2026-05-01 04:43 1.0M
20260501T00Z_MSC_GDPS_AirTemp_IsbL-0300_LatLon0.15_PT228H.grib2 2026-05-01 04:43 947K
20260501T00Z_MSC_GDPS_AirTemp_IsbL-0350_LatLon0.15_PT228H.grib2 2026-05-01 04:43 932K
20260501T00Z_MSC_GDPS_AirTemp_IsbL-0400_LatLon0.15_PT228H.grib2 2026-05-01 04:43 941K
20260501T00Z_MSC_GDPS_AirTemp_IsbL-0450_LatLon0.15_PT228H.grib2 2026-05-01 04:43 962K
20260501T00Z_MSC_GDPS_AirTemp_IsbL-0500_LatLon0.15_PT228H.grib2 2026-05-01 04:43 1.0M
20260501T00Z_MSC_GDPS_AirTemp_IsbL-0550_LatLon0.15_PT228H.grib2 2026-05-01 04:43 800K
20260501T00Z_MSC_GDPS_AirTemp_IsbL-0600_LatLon0.15_PT228H.grib2 2026-05-01 04:43 896K
20260501T00Z_MSC_GDPS_AirTemp_IsbL-0650_LatLon0.15_PT228H.grib2 2026-05-01 04:43 924K
20260501T00Z_MSC_GDPS_AirTemp_IsbL-0700_LatLon0.15_PT228H.grib2 2026-05-01 04:43 958K
20260501T00Z_MSC_GDPS_AirTemp_IsbL-0750_LatLon0.15_PT228H.grib2 2026-05-01 04:43 1.0M
20260501T00Z_MSC_GDPS_AirTemp_IsbL-0800_LatLon0.15_PT228H.grib2 2026-05-01 04:43 1.1M
20260501T00Z_MSC_GDPS_AirTemp_IsbL-0850_LatLon0.15_PT228H.grib2 2026-05-01 04:43 1.1M
20260501T00Z_MSC_GDPS_AirTemp_IsbL-0875_LatLon0.15_PT228H.grib2 2026-05-01 04:43 1.2M
20260501T00Z_MSC_GDPS_AirTemp_IsbL-0900_LatLon0.15_PT228H.grib2 2026-05-01 04:43 1.1M
20260501T00Z_MSC_GDPS_AirTemp_IsbL-0925_LatLon0.15_PT228H.grib2 2026-05-01 04:43 1.1M
20260501T00Z_MSC_GDPS_AirTemp_IsbL-0950_LatLon0.15_PT228H.grib2 2026-05-01 04:43 1.1M
20260501T00Z_MSC_GDPS_AirTemp_IsbL-0970_LatLon0.15_PT228H.grib2 2026-05-01 04:43 1.1M
20260501T00Z_MSC_GDPS_AirTemp_IsbL-0985_LatLon0.15_PT228H.grib2 2026-05-01 04:43 1.1M
20260501T00Z_MSC_GDPS_AirTemp_IsbL-1000_LatLon0.15_PT228H.grib2 2026-05-01 04:43 1.1M
20260501T00Z_MSC_GDPS_AirTemp_IsbL-1015_LatLon0.15_PT228H.grib2 2026-05-01 04:43 1.1M
20260501T00Z_MSC_GDPS_Albedo_Sfc_LatLon0.15_PT228H.grib2 2026-05-01 04:43 239K
20260501T00Z_MSC_GDPS_CAPE_Sfc_LatLon0.15_PT228H.grib2 2026-05-01 04:43 3.8M
20260501T00Z_MSC_GDPS_CIN_Sfc_LatLon0.15_PT228H.grib2 2026-05-01 04:43 2.9M
20260501T00Z_MSC_GDPS_CloudWater_EAtm_LatLon0.15_PT228H.grib2 2026-05-01 04:43 545K
20260501T00Z_MSC_GDPS_ConvectivePrecip-Accum_Sfc_LatLon0.15_PT228H.grib2 2026-05-01 04:43 3.8M
20260501T00Z_MSC_GDPS_DewPointDepression_AGL-2m_LatLon0.15_PT228H.grib2 2026-05-01 04:43 761K
20260501T00Z_MSC_GDPS_DewPointDepression_IsbL-0010_LatLon0.15_PT228H.grib2 2026-05-01 04:43 82K
20260501T00Z_MSC_GDPS_DewPointDepression_IsbL-0020_LatLon0.15_PT228H.grib2 2026-05-01 04:43 79K
20260501T00Z_MSC_GDPS_DewPointDepression_IsbL-0030_LatLon0.15_PT228H.grib2 2026-05-01 04:43 92K
20260501T00Z_MSC_GDPS_DewPointDepression_IsbL-0050_LatLon0.15_PT228H.grib2 2026-05-01 04:43 379K
20260501T00Z_MSC_GDPS_DewPointDepression_IsbL-0100_LatLon0.15_PT228H.grib2 2026-05-01 04:43 390K
20260501T00Z_MSC_GDPS_DewPointDepression_IsbL-0150_LatLon0.15_PT228H.grib2 2026-05-01 04:43 495K
20260501T00Z_MSC_GDPS_DewPointDepression_IsbL-0175_LatLon0.15_PT228H.grib2 2026-05-01 04:43 576K
20260501T00Z_MSC_GDPS_DewPointDepression_IsbL-0200_LatLon0.15_PT228H.grib2 2026-05-01 04:43 683K
20260501T00Z_MSC_GDPS_DewPointDepression_IsbL-0225_LatLon0.15_PT228H.grib2 2026-05-01 04:43 774K
20260501T00Z_MSC_GDPS_DewPointDepression_IsbL-0250_LatLon0.15_PT228H.grib2 2026-05-01 04:43 866K
20260501T00Z_MSC_GDPS_DewPointDepression_IsbL-0275_LatLon0.15_PT228H.grib2 2026-05-01 04:43 884K
20260501T00Z_MSC_GDPS_DewPointDepression_IsbL-0300_LatLon0.15_PT228H.grib2 2026-05-01 04:43 927K
20260501T00Z_MSC_GDPS_DewPointDepression_IsbL-0350_LatLon0.15_PT228H.grib2 2026-05-01 04:43 956K
20260501T00Z_MSC_GDPS_DewPointDepression_IsbL-0400_LatLon0.15_PT228H.grib2 2026-05-01 04:43 1.0M
20260501T00Z_MSC_GDPS_DewPointDepression_IsbL-0450_LatLon0.15_PT228H.grib2 2026-05-01 04:43 1.0M
20260501T00Z_MSC_GDPS_DewPointDepression_IsbL-0500_LatLon0.15_PT228H.grib2 2026-05-01 04:43 1.0M
20260501T00Z_MSC_GDPS_DewPointDepression_IsbL-0550_LatLon0.15_PT228H.grib2 2026-05-01 04:43 1.0M
20260501T00Z_MSC_GDPS_DewPointDepression_IsbL-0600_LatLon0.15_PT228H.grib2 2026-05-01 04:43 1.1M
20260501T00Z_MSC_GDPS_DewPointDepression_IsbL-0650_LatLon0.15_PT228H.grib2 2026-05-01 04:43 1.1M
20260501T00Z_MSC_GDPS_DewPointDepression_IsbL-0700_LatLon0.15_PT228H.grib2 2026-05-01 04:43 1.1M
20260501T00Z_MSC_GDPS_DewPointDepression_IsbL-0750_LatLon0.15_PT228H.grib2 2026-05-01 04:43 1.1M
20260501T00Z_MSC_GDPS_DewPointDepression_IsbL-0800_LatLon0.15_PT228H.grib2 2026-05-01 04:43 1.2M
20260501T00Z_MSC_GDPS_DewPointDepression_IsbL-0850_LatLon0.15_PT228H.grib2 2026-05-01 04:43 1.2M
20260501T00Z_MSC_GDPS_DewPointDepression_IsbL-0875_LatLon0.15_PT228H.grib2 2026-05-01 04:43 1.1M
20260501T00Z_MSC_GDPS_DewPointDepression_IsbL-0900_LatLon0.15_PT228H.grib2 2026-05-01 04:43 1.1M
20260501T00Z_MSC_GDPS_DewPointDepression_IsbL-0925_LatLon0.15_PT228H.grib2 2026-05-01 04:43 1.0M
20260501T00Z_MSC_GDPS_DewPointDepression_IsbL-0950_LatLon0.15_PT228H.grib2 2026-05-01 04:43 1.0M
20260501T00Z_MSC_GDPS_DewPointDepression_IsbL-0970_LatLon0.15_PT228H.grib2 2026-05-01 04:43 1.0M
20260501T00Z_MSC_GDPS_DewPointDepression_IsbL-0985_LatLon0.15_PT228H.grib2 2026-05-01 04:43 1.0M
20260501T00Z_MSC_GDPS_DewPointDepression_IsbL-1000_LatLon0.15_PT228H.grib2 2026-05-01 04:43 1.0M
20260501T00Z_MSC_GDPS_DewPointDepression_IsbL-1015_LatLon0.15_PT228H.grib2 2026-05-01 04:43 914K
20260501T00Z_MSC_GDPS_DewPoint_AGL-2m_LatLon0.15_PT228H.grib2 2026-05-01 04:43 613K
20260501T00Z_MSC_GDPS_DownwardLongwaveRadiationFlux-Accum_Sfc_LatLon0.15_PT228H.grib2 2026-05-01 04:43 736K
20260501T00Z_MSC_GDPS_DownwardShortwaveRadiationFlux-Accum_NTAtm_LatLon0.15_PT228H.grib2 2026-05-01 04:43 268K
20260501T00Z_MSC_GDPS_DownwardShortwaveRadiationFlux-Accum_Sfc_LatLon0.15_PT228H.grib2 2026-05-01 04:43 908K
20260501T00Z_MSC_GDPS_FreezingRain-Accum12h_Sfc_LatLon0.15_PT228H.grib2 2026-05-01 04:43 83K
20260501T00Z_MSC_GDPS_FreezingRain-Accum24h_Sfc_LatLon0.15_PT228H.grib2 2026-05-01 04:43 131K
20260501T00Z_MSC_GDPS_FreezingRain-Accum6h_Sfc_LatLon0.15_PT228H.grib2 2026-05-01 04:43 74K
20260501T00Z_MSC_GDPS_FreezingRain-Accum_Sfc_LatLon0.15_PT228H.grib2 2026-05-01 04:43 498K
20260501T00Z_MSC_GDPS_GeopotentialHeight_IsbL-0001_LatLon0.15_PT228H.grib2 2026-05-01 04:43 443K
20260501T00Z_MSC_GDPS_GeopotentialHeight_IsbL-0005_LatLon0.15_PT228H.grib2 2026-05-01 04:43 499K
20260501T00Z_MSC_GDPS_GeopotentialHeight_IsbL-0010_LatLon0.15_PT228H.grib2 2026-05-01 04:43 479K
20260501T00Z_MSC_GDPS_GeopotentialHeight_IsbL-0020_LatLon0.15_PT228H.grib2 2026-05-01 04:43 464K
20260501T00Z_MSC_GDPS_GeopotentialHeight_IsbL-0030_LatLon0.15_PT228H.grib2 2026-05-01 04:43 416K
20260501T00Z_MSC_GDPS_GeopotentialHeight_IsbL-0050_LatLon0.15_PT228H.grib2 2026-05-01 04:43 567K
20260501T00Z_MSC_GDPS_GeopotentialHeight_IsbL-0100_LatLon0.15_PT228H.grib2 2026-05-01 04:43 608K
20260501T00Z_MSC_GDPS_GeopotentialHeight_IsbL-0150_LatLon0.15_PT228H.grib2 2026-05-01 04:43 629K
20260501T00Z_MSC_GDPS_GeopotentialHeight_IsbL-0175_LatLon0.15_PT228H.grib2 2026-05-01 04:43 632K
20260501T00Z_MSC_GDPS_GeopotentialHeight_IsbL-0200_LatLon0.15_PT228H.grib2 2026-05-01 04:43 637K
20260501T00Z_MSC_GDPS_GeopotentialHeight_IsbL-0225_LatLon0.15_PT228H.grib2 2026-05-01 04:43 639K
20260501T00Z_MSC_GDPS_GeopotentialHeight_IsbL-0250_LatLon0.15_PT228H.grib2 2026-05-01 04:43 643K
20260501T00Z_MSC_GDPS_GeopotentialHeight_IsbL-0275_LatLon0.15_PT228H.grib2 2026-05-01 04:43 643K
20260501T00Z_MSC_GDPS_GeopotentialHeight_IsbL-0300_LatLon0.15_PT228H.grib2 2026-05-01 04:43 643K
20260501T00Z_MSC_GDPS_GeopotentialHeight_IsbL-0350_LatLon0.15_PT228H.grib2 2026-05-01 04:43 634K
20260501T00Z_MSC_GDPS_GeopotentialHeight_IsbL-0400_LatLon0.15_PT228H.grib2 2026-05-01 04:43 624K
20260501T00Z_MSC_GDPS_GeopotentialHeight_IsbL-0450_LatLon0.15_PT228H.grib2 2026-05-01 04:43 614K
20260501T00Z_MSC_GDPS_GeopotentialHeight_IsbL-0500_LatLon0.15_PT228H.grib2 2026-05-01 04:43 532K
20260501T00Z_MSC_GDPS_GeopotentialHeight_IsbL-0550_LatLon0.15_PT228H.grib2 2026-05-01 04:43 528K
20260501T00Z_MSC_GDPS_GeopotentialHeight_IsbL-0600_LatLon0.15_PT228H.grib2 2026-05-01 04:43 525K
20260501T00Z_MSC_GDPS_GeopotentialHeight_IsbL-0650_LatLon0.15_PT228H.grib2 2026-05-01 04:43 691K
20260501T00Z_MSC_GDPS_GeopotentialHeight_IsbL-0700_LatLon0.15_PT228H.grib2 2026-05-01 04:43 695K
20260501T00Z_MSC_GDPS_GeopotentialHeight_IsbL-0750_LatLon0.15_PT228H.grib2 2026-05-01 04:43 700K
20260501T00Z_MSC_GDPS_GeopotentialHeight_IsbL-0800_LatLon0.15_PT228H.grib2 2026-05-01 04:43 710K
20260501T00Z_MSC_GDPS_GeopotentialHeight_IsbL-0850_LatLon0.15_PT228H.grib2 2026-05-01 04:43 716K
20260501T00Z_MSC_GDPS_GeopotentialHeight_IsbL-0875_LatLon0.15_PT228H.grib2 2026-05-01 04:43 720K
20260501T00Z_MSC_GDPS_GeopotentialHeight_IsbL-0900_LatLon0.15_PT228H.grib2 2026-05-01 04:43 728K
20260501T00Z_MSC_GDPS_GeopotentialHeight_IsbL-0925_LatLon0.15_PT228H.grib2 2026-05-01 04:43 736K
20260501T00Z_MSC_GDPS_GeopotentialHeight_IsbL-0950_LatLon0.15_PT228H.grib2 2026-05-01 04:43 743K
20260501T00Z_MSC_GDPS_GeopotentialHeight_IsbL-0970_LatLon0.15_PT228H.grib2 2026-05-01 04:43 752K
20260501T00Z_MSC_GDPS_GeopotentialHeight_IsbL-0985_LatLon0.15_PT228H.grib2 2026-05-01 04:43 767K
20260501T00Z_MSC_GDPS_GeopotentialHeight_IsbL-1000_LatLon0.15_PT228H.grib2 2026-05-01 04:43 788K
20260501T00Z_MSC_GDPS_GeopotentialHeight_IsbL-1015_LatLon0.15_PT228H.grib2 2026-05-01 04:43 807K
20260501T00Z_MSC_GDPS_Humidex_Sfc_LatLon0.15_PT228H.grib2 2026-05-01 04:43 5.3M
20260501T00Z_MSC_GDPS_IcePellets-Accum12h_Sfc_LatLon0.15_PT228H.grib2 2026-05-01 04:43 26K
20260501T00Z_MSC_GDPS_IcePellets-Accum24h_Sfc_LatLon0.15_PT228H.grib2 2026-05-01 04:43 41K
20260501T00Z_MSC_GDPS_IcePellets-Accum6h_Sfc_LatLon0.15_PT228H.grib2 2026-05-01 04:43 21K
20260501T00Z_MSC_GDPS_IcePellets-Accum_Sfc_LatLon0.15_PT228H.grib2 2026-05-01 04:43 217K
20260501T00Z_MSC_GDPS_KIndex_Sfc_LatLon0.15_PT228H.grib2 2026-05-01 04:43 6.5M
20260501T00Z_MSC_GDPS_LatentHeatNetFlux_Sfc_LatLon0.15_PT228H.grib2 2026-05-01 04:43 552K
20260501T00Z_MSC_GDPS_LiftedIndex-MU-VT_IsbL-0500_LatLon0.15_PT228H.grib2 2026-05-01 04:43 5.4M
20260501T00Z_MSC_GDPS_NetLongwaveRadiationFlux-Accum_Sfc_LatLon0.15_PT228H.grib2 2026-05-01 04:43 959K
20260501T00Z_MSC_GDPS_NetShortwaveRadiationFlux-Accum_Sfc_LatLon0.15_PT228H.grib2 2026-05-01 04:43 905K
20260501T00Z_MSC_GDPS_O3MixingRatio_Sfc_LatLon0.15_PT228H.grib2 2026-05-01 04:51 2.2M
20260501T00Z_MSC_GDPS_O3_EAtm_LatLon0.15_PT228H.grib2 2026-05-01 04:51 2.4M
20260501T00Z_MSC_GDPS_PlanetaryBoundaryLayerHeight_Sfc_LatLon0.15_PT228H.grib2 2026-05-01 04:43 2.5M
20260501T00Z_MSC_GDPS_Precip-Accum12h_Sfc_LatLon0.15_PT228H.grib2 2026-05-01 04:43 4.1M
20260501T00Z_MSC_GDPS_Precip-Accum24h_Sfc_LatLon0.15_PT228H.grib2 2026-05-01 04:43 4.6M
20260501T00Z_MSC_GDPS_Precip-Accum6h_Sfc_LatLon0.15_PT228H.grib2 2026-05-01 04:43 3.6M
20260501T00Z_MSC_GDPS_Precip-Accum_Sfc_LatLon0.15_PT228H.grib2 2026-05-01 04:43 5.1M
20260501T00Z_MSC_GDPS_PrecipRate_Sfc_LatLon0.15_PT228H.grib2 2026-05-01 04:43 3.0M
20260501T00Z_MSC_GDPS_PrecipType-Instant_Sfc_LatLon0.15_PT228H.grib2 2026-05-01 04:43 1.6M
20260501T00Z_MSC_GDPS_Pressure_MSL_LatLon0.15_PT228H.grib2 2026-05-01 04:43 825K
20260501T00Z_MSC_GDPS_Pressure_PVU-1.5_LatLon0.15_PT228H.grib2 2026-05-01 04:43 5.8M
20260501T00Z_MSC_GDPS_Pressure_PVU-1_LatLon0.15_PT228H.grib2 2026-05-01 04:43 6.0M
20260501T00Z_MSC_GDPS_Pressure_PVU-2_LatLon0.15_PT228H.grib2 2026-05-01 04:43 5.6M
20260501T00Z_MSC_GDPS_Pressure_Sfc_LatLon0.15_PT228H.grib2 2026-05-01 04:43 1.1M
20260501T00Z_MSC_GDPS_RadiativeTemp_Sfc_LatLon0.15_PT228H.grib2 2026-05-01 04:43 504K
20260501T00Z_MSC_GDPS_Rain-Accum12h_Sfc_LatLon0.15_PT228H.grib2 2026-05-01 04:43 2.7M
20260501T00Z_MSC_GDPS_Rain-Accum24h_Sfc_LatLon0.15_PT228H.grib2 2026-05-01 04:43 3.2M
20260501T00Z_MSC_GDPS_Rain-Accum6h_Sfc_LatLon0.15_PT228H.grib2 2026-05-01 04:43 2.4M
20260501T00Z_MSC_GDPS_Rain-Accum_Sfc_LatLon0.15_PT228H.grib2 2026-05-01 04:43 4.1M
20260501T00Z_MSC_GDPS_RelativeHumidity_AGL-2m_LatLon0.15_PT228H.grib2 2026-05-01 04:43 1.0M
20260501T00Z_MSC_GDPS_RelativeHumidity_IsbL-0010_LatLon0.15_PT228H.grib2 2026-05-01 04:43 141K
20260501T00Z_MSC_GDPS_RelativeHumidity_IsbL-0020_LatLon0.15_PT228H.grib2 2026-05-01 04:43 177K
20260501T00Z_MSC_GDPS_RelativeHumidity_IsbL-0030_LatLon0.15_PT228H.grib2 2026-05-01 04:43 181K
20260501T00Z_MSC_GDPS_RelativeHumidity_IsbL-0050_LatLon0.15_PT228H.grib2 2026-05-01 04:43 329K
20260501T00Z_MSC_GDPS_RelativeHumidity_IsbL-0100_LatLon0.15_PT228H.grib2 2026-05-01 04:43 492K
20260501T00Z_MSC_GDPS_RelativeHumidity_IsbL-0150_LatLon0.15_PT228H.grib2 2026-05-01 04:43 677K
20260501T00Z_MSC_GDPS_RelativeHumidity_IsbL-0175_LatLon0.15_PT228H.grib2 2026-05-01 04:43 792K
20260501T00Z_MSC_GDPS_RelativeHumidity_IsbL-0200_LatLon0.15_PT228H.grib2 2026-05-01 04:43 705K
20260501T00Z_MSC_GDPS_RelativeHumidity_IsbL-0225_LatLon0.15_PT228H.grib2 2026-05-01 04:43 793K
20260501T00Z_MSC_GDPS_RelativeHumidity_IsbL-0250_LatLon0.15_PT228H.grib2 2026-05-01 04:43 871K
20260501T00Z_MSC_GDPS_RelativeHumidity_IsbL-0275_LatLon0.15_PT228H.grib2 2026-05-01 04:43 891K
20260501T00Z_MSC_GDPS_RelativeHumidity_IsbL-0300_LatLon0.15_PT228H.grib2 2026-05-01 04:43 933K
20260501T00Z_MSC_GDPS_RelativeHumidity_IsbL-0350_LatLon0.15_PT228H.grib2 2026-05-01 04:43 950K
20260501T00Z_MSC_GDPS_RelativeHumidity_IsbL-0400_LatLon0.15_PT228H.grib2 2026-05-01 04:43 967K
20260501T00Z_MSC_GDPS_RelativeHumidity_IsbL-0450_LatLon0.15_PT228H.grib2 2026-05-01 04:43 1.0M
20260501T00Z_MSC_GDPS_RelativeHumidity_IsbL-0500_LatLon0.15_PT228H.grib2 2026-05-01 04:43 1.0M
20260501T00Z_MSC_GDPS_RelativeHumidity_IsbL-0550_LatLon0.15_PT228H.grib2 2026-05-01 04:43 1.0M
20260501T00Z_MSC_GDPS_RelativeHumidity_IsbL-0600_LatLon0.15_PT228H.grib2 2026-05-01 04:43 1.1M
20260501T00Z_MSC_GDPS_RelativeHumidity_IsbL-0650_LatLon0.15_PT228H.grib2 2026-05-01 04:43 1.1M
20260501T00Z_MSC_GDPS_RelativeHumidity_IsbL-0700_LatLon0.15_PT228H.grib2 2026-05-01 04:43 1.1M
20260501T00Z_MSC_GDPS_RelativeHumidity_IsbL-0750_LatLon0.15_PT228H.grib2 2026-05-01 04:43 1.1M
20260501T00Z_MSC_GDPS_RelativeHumidity_IsbL-0800_LatLon0.15_PT228H.grib2 2026-05-01 04:43 1.3M
20260501T00Z_MSC_GDPS_RelativeHumidity_IsbL-0850_LatLon0.15_PT228H.grib2 2026-05-01 04:43 1.3M
20260501T00Z_MSC_GDPS_RelativeHumidity_IsbL-0875_LatLon0.15_PT228H.grib2 2026-05-01 04:43 1.3M
20260501T00Z_MSC_GDPS_RelativeHumidity_IsbL-0900_LatLon0.15_PT228H.grib2 2026-05-01 04:43 1.2M
20260501T00Z_MSC_GDPS_RelativeHumidity_IsbL-0925_LatLon0.15_PT228H.grib2 2026-05-01 04:43 1.2M
20260501T00Z_MSC_GDPS_RelativeHumidity_IsbL-0950_LatLon0.15_PT228H.grib2 2026-05-01 04:43 1.2M
20260501T00Z_MSC_GDPS_RelativeHumidity_IsbL-0970_LatLon0.15_PT228H.grib2 2026-05-01 04:43 1.2M
20260501T00Z_MSC_GDPS_RelativeHumidity_IsbL-0985_LatLon0.15_PT228H.grib2 2026-05-01 04:43 1.1M
20260501T00Z_MSC_GDPS_RelativeHumidity_IsbL-1000_LatLon0.15_PT228H.grib2 2026-05-01 04:43 1.1M
20260501T00Z_MSC_GDPS_RelativeHumidity_IsbL-1015_LatLon0.15_PT228H.grib2 2026-05-01 04:43 1.0M
20260501T00Z_MSC_GDPS_RelativeVorticity_IsbL-0200_LatLon0.15_PT228H.grib2 2026-05-01 04:43 1.2M
20260501T00Z_MSC_GDPS_RelativeVorticity_IsbL-0250_LatLon0.15_PT228H.grib2 2026-05-01 04:43 1.3M
20260501T00Z_MSC_GDPS_RelativeVorticity_IsbL-0500_LatLon0.15_PT228H.grib2 2026-05-01 04:43 1.2M
20260501T00Z_MSC_GDPS_RelativeVorticity_IsbL-0700_LatLon0.15_PT228H.grib2 2026-05-01 04:43 1.3M
20260501T00Z_MSC_GDPS_RelativeVorticity_IsbL-0850_LatLon0.15_PT228H.grib2 2026-05-01 04:43 1.6M
20260501T00Z_MSC_GDPS_Runoff-Accum_Sfc_LatLon0.15_PT228H.grib2 2026-05-01 04:43 140K
20260501T00Z_MSC_GDPS_SensibleHeatNetFlux_Sfc_LatLon0.15_PT228H.grib2 2026-05-01 04:43 485K
20260501T00Z_MSC_GDPS_ShowalterIndex_IsbL-0500_LatLon0.15_PT228H.grib2 2026-05-01 04:43 6.2M
20260501T00Z_MSC_GDPS_Snow-Accum12h_Sfc_LatLon0.15_PT228H.grib2 2026-05-01 04:43 1.4M
20260501T00Z_MSC_GDPS_Snow-Accum24h_Sfc_LatLon0.15_PT228H.grib2 2026-05-01 04:43 1.5M
20260501T00Z_MSC_GDPS_Snow-Accum6h_Sfc_LatLon0.15_PT228H.grib2 2026-05-01 04:43 1.4M
20260501T00Z_MSC_GDPS_Snow-Accum_Sfc_LatLon0.15_PT228H.grib2 2026-05-01 04:43 2.2M
20260501T00Z_MSC_GDPS_SnowDensity_Sfc_LatLon0.15_PT228H.grib2 2026-05-01 04:43 256K
20260501T00Z_MSC_GDPS_SnowDepth_Sfc_LatLon0.15_PT228H.grib2 2026-05-01 04:43 1.7M
20260501T00Z_MSC_GDPS_SoilTemp_DBS-0to10cm_LatLon0.15_PT228H.grib2 2026-05-01 04:43 519K
20260501T00Z_MSC_GDPS_SoilTemp_Sfc_LatLon0.15_PT228H.grib2 2026-05-01 04:43 594K
20260501T00Z_MSC_GDPS_SoilVolumetricIceContent_Sfc_LatLon0.15_PT228H.grib2 2026-05-01 04:43 177K
20260501T00Z_MSC_GDPS_SoilVolumetricWaterContent_DBS-0to10cm_LatLon0.15_PT228H.grib2 2026-05-01 04:43 599K
20260501T00Z_MSC_GDPS_SoilVolumetricWaterContent_DBS-0to1cm_LatLon0.15_PT228H.grib2 2026-05-01 04:43 646K
20260501T00Z_MSC_GDPS_SpecificHumidity_AGL-120m_LatLon0.15_PT228H.grib2 2026-05-01 04:43 1.1M
20260501T00Z_MSC_GDPS_SpecificHumidity_AGL-2m_LatLon0.15_PT228H.grib2 2026-05-01 04:43 1.2M
20260501T00Z_MSC_GDPS_SpecificHumidity_AGL-40m_LatLon0.15_PT228H.grib2 2026-05-01 04:43 1.1M
20260501T00Z_MSC_GDPS_SpecificHumidity_AGL-80m_LatLon0.15_PT228H.grib2 2026-05-01 04:43 1.1M
20260501T00Z_MSC_GDPS_SpecificHumidity_IsbL-0001_LatLon0.15_PT228H.grib2 2026-05-01 04:43 1.1M
20260501T00Z_MSC_GDPS_SpecificHumidity_IsbL-0005_LatLon0.15_PT228H.grib2 2026-05-01 04:43 1.0M
20260501T00Z_MSC_GDPS_SpecificHumidity_IsbL-0010_LatLon0.15_PT228H.grib2 2026-05-01 04:43 1.1M
20260501T00Z_MSC_GDPS_SpecificHumidity_IsbL-0020_LatLon0.15_PT228H.grib2 2026-05-01 04:43 1.1M
20260501T00Z_MSC_GDPS_SpecificHumidity_IsbL-0030_LatLon0.15_PT228H.grib2 2026-05-01 04:43 1.4M
20260501T00Z_MSC_GDPS_SpecificHumidity_IsbL-0050_LatLon0.15_PT228H.grib2 2026-05-01 04:43 1.5M
20260501T00Z_MSC_GDPS_SpecificHumidity_IsbL-0100_LatLon0.15_PT228H.grib2 2026-05-01 04:43 1.2M
20260501T00Z_MSC_GDPS_SpecificHumidity_IsbL-0150_LatLon0.15_PT228H.grib2 2026-05-01 04:43 1.3M
20260501T00Z_MSC_GDPS_SpecificHumidity_IsbL-0175_LatLon0.15_PT228H.grib2 2026-05-01 04:43 1.3M
20260501T00Z_MSC_GDPS_SpecificHumidity_IsbL-0200_LatLon0.15_PT228H.grib2 2026-05-01 04:43 1.3M
20260501T00Z_MSC_GDPS_SpecificHumidity_IsbL-0225_LatLon0.15_PT228H.grib2 2026-05-01 04:43 1.3M
20260501T00Z_MSC_GDPS_SpecificHumidity_IsbL-0250_LatLon0.15_PT228H.grib2 2026-05-01 04:43 1.2M
20260501T00Z_MSC_GDPS_SpecificHumidity_IsbL-0275_LatLon0.15_PT228H.grib2 2026-05-01 04:43 1.1M
20260501T00Z_MSC_GDPS_SpecificHumidity_IsbL-0300_LatLon0.15_PT228H.grib2 2026-05-01 04:43 1.2M
20260501T00Z_MSC_GDPS_SpecificHumidity_IsbL-0350_LatLon0.15_PT228H.grib2 2026-05-01 04:43 1.2M
20260501T00Z_MSC_GDPS_SpecificHumidity_IsbL-0400_LatLon0.15_PT228H.grib2 2026-05-01 04:43 1.4M
20260501T00Z_MSC_GDPS_SpecificHumidity_IsbL-0450_LatLon0.15_PT228H.grib2 2026-05-01 04:43 1.3M
20260501T00Z_MSC_GDPS_SpecificHumidity_IsbL-0500_LatLon0.15_PT228H.grib2 2026-05-01 04:43 1.4M
20260501T00Z_MSC_GDPS_SpecificHumidity_IsbL-0550_LatLon0.15_PT228H.grib2 2026-05-01 04:43 1.6M
20260501T00Z_MSC_GDPS_SpecificHumidity_IsbL-0600_LatLon0.15_PT228H.grib2 2026-05-01 04:43 1.4M
20260501T00Z_MSC_GDPS_SpecificHumidity_IsbL-0650_LatLon0.15_PT228H.grib2 2026-05-01 04:43 1.6M
20260501T00Z_MSC_GDPS_SpecificHumidity_IsbL-0700_LatLon0.15_PT228H.grib2 2026-05-01 04:43 1.6M
20260501T00Z_MSC_GDPS_SpecificHumidity_IsbL-0750_LatLon0.15_PT228H.grib2 2026-05-01 04:43 1.7M
20260501T00Z_MSC_GDPS_SpecificHumidity_IsbL-0800_LatLon0.15_PT228H.grib2 2026-05-01 04:43 1.9M
20260501T00Z_MSC_GDPS_SpecificHumidity_IsbL-0850_LatLon0.15_PT228H.grib2 2026-05-01 04:43 2.0M
20260501T00Z_MSC_GDPS_SpecificHumidity_IsbL-0875_LatLon0.15_PT228H.grib2 2026-05-01 04:43 2.0M
20260501T00Z_MSC_GDPS_SpecificHumidity_IsbL-0900_LatLon0.15_PT228H.grib2 2026-05-01 04:43 1.6M
20260501T00Z_MSC_GDPS_SpecificHumidity_IsbL-0925_LatLon0.15_PT228H.grib2 2026-05-01 04:43 1.6M
20260501T00Z_MSC_GDPS_SpecificHumidity_IsbL-0950_LatLon0.15_PT228H.grib2 2026-05-01 04:43 1.6M
20260501T00Z_MSC_GDPS_SpecificHumidity_IsbL-0970_LatLon0.15_PT228H.grib2 2026-05-01 04:43 1.6M
20260501T00Z_MSC_GDPS_SpecificHumidity_IsbL-0985_LatLon0.15_PT228H.grib2 2026-05-01 04:43 1.5M
20260501T00Z_MSC_GDPS_SpecificHumidity_IsbL-1000_LatLon0.15_PT228H.grib2 2026-05-01 04:43 1.5M
20260501T00Z_MSC_GDPS_SpecificHumidity_IsbL-1015_LatLon0.15_PT228H.grib2 2026-05-01 04:43 1.5M
20260501T00Z_MSC_GDPS_SpecificHumidity_Sfc_LatLon0.15_PT228H.grib2 2026-05-01 04:43 685K
20260501T00Z_MSC_GDPS_Thickness_IsbL-0850to0700_LatLon0.15_PT228H.grib2 2026-05-01 04:43 470K
20260501T00Z_MSC_GDPS_Thickness_IsbL-1000to0500_LatLon0.15_PT228H.grib2 2026-05-01 04:43 373K
20260501T00Z_MSC_GDPS_Thickness_IsbL-1000to0850_LatLon0.15_PT228H.grib2 2026-05-01 04:43 488K
20260501T00Z_MSC_GDPS_TotalCloudCover_Sfc_LatLon0.15_PT228H.grib2 2026-05-01 04:43 831K
20260501T00Z_MSC_GDPS_TotalTotalsIndex_Sfc_LatLon0.15_PT228H.grib2 2026-05-01 04:43 6.2M
20260501T00Z_MSC_GDPS_UVIndex-ClearSky_Sfc_LatLon0.15_PT228H.grib2 2026-05-01 04:51 1.0M
20260501T00Z_MSC_GDPS_UVIndex_Sfc_LatLon0.15_PT228H.grib2 2026-05-01 04:51 1.5M
20260501T00Z_MSC_GDPS_UpwardLongwaveRadiationFlux_NTAtm_LatLon0.15_PT228H.grib2 2026-05-01 04:43 844K
20260501T00Z_MSC_GDPS_VerticalVelocity_IsbL-0200_LatLon0.15_PT228H.grib2 2026-05-01 04:43 1.1M
20260501T00Z_MSC_GDPS_VerticalVelocity_IsbL-0250_LatLon0.15_PT228H.grib2 2026-05-01 04:43 1.1M
20260501T00Z_MSC_GDPS_VerticalVelocity_IsbL-0500_LatLon0.15_PT228H.grib2 2026-05-01 04:43 1.0M
20260501T00Z_MSC_GDPS_VerticalVelocity_IsbL-0600_LatLon0.15_PT228H.grib2 2026-05-01 04:43 1.1M
20260501T00Z_MSC_GDPS_VerticalVelocity_IsbL-0700_LatLon0.15_PT228H.grib2 2026-05-01 04:43 1.4M
20260501T00Z_MSC_GDPS_VerticalVelocity_IsbL-0850_LatLon0.15_PT228H.grib2 2026-05-01 04:43 1.6M
20260501T00Z_MSC_GDPS_WindChill_Sfc_LatLon0.15_PT228H.grib2 2026-05-01 04:43 5.3M
20260501T00Z_MSC_GDPS_WindDir_AGL-10m_LatLon0.15_PT228H.grib2 2026-05-01 04:43 1.3M
20260501T00Z_MSC_GDPS_WindDir_AGL-120m_LatLon0.15_PT228H.grib2 2026-05-01 04:43 1.3M
20260501T00Z_MSC_GDPS_WindDir_AGL-40m_LatLon0.15_PT228H.grib2 2026-05-01 04:43 1.4M
20260501T00Z_MSC_GDPS_WindDir_AGL-80m_LatLon0.15_PT228H.grib2 2026-05-01 04:43 1.4M
20260501T00Z_MSC_GDPS_WindDir_IsbL-0001_LatLon0.15_PT228H.grib2 2026-05-01 04:43 653K
20260501T00Z_MSC_GDPS_WindDir_IsbL-0005_LatLon0.15_PT228H.grib2 2026-05-01 04:43 811K
20260501T00Z_MSC_GDPS_WindDir_IsbL-0010_LatLon0.15_PT228H.grib2 2026-05-01 04:43 829K
20260501T00Z_MSC_GDPS_WindDir_IsbL-0020_LatLon0.15_PT228H.grib2 2026-05-01 04:43 928K
20260501T00Z_MSC_GDPS_WindDir_IsbL-0030_LatLon0.15_PT228H.grib2 2026-05-01 04:43 921K
20260501T00Z_MSC_GDPS_WindDir_IsbL-0050_LatLon0.15_PT228H.grib2 2026-05-01 04:43 952K
20260501T00Z_MSC_GDPS_WindDir_IsbL-0100_LatLon0.15_PT228H.grib2 2026-05-01 04:43 1.0M
20260501T00Z_MSC_GDPS_WindDir_IsbL-0150_LatLon0.15_PT228H.grib2 2026-05-01 04:43 1.0M
20260501T00Z_MSC_GDPS_WindDir_IsbL-0175_LatLon0.15_PT228H.grib2 2026-05-01 04:43 1.0M
20260501T00Z_MSC_GDPS_WindDir_IsbL-0200_LatLon0.15_PT228H.grib2 2026-05-01 04:43 1.1M
20260501T00Z_MSC_GDPS_WindDir_IsbL-0225_LatLon0.15_PT228H.grib2 2026-05-01 04:43 1.1M
20260501T00Z_MSC_GDPS_WindDir_IsbL-0250_LatLon0.15_PT228H.grib2 2026-05-01 04:43 1.1M
20260501T00Z_MSC_GDPS_WindDir_IsbL-0275_LatLon0.15_PT228H.grib2 2026-05-01 04:43 1.2M
20260501T00Z_MSC_GDPS_WindDir_IsbL-0300_LatLon0.15_PT228H.grib2 2026-05-01 04:43 1.2M
20260501T00Z_MSC_GDPS_WindDir_IsbL-0350_LatLon0.15_PT228H.grib2 2026-05-01 04:43 1.2M
20260501T00Z_MSC_GDPS_WindDir_IsbL-0400_LatLon0.15_PT228H.grib2 2026-05-01 04:43 1.3M
20260501T00Z_MSC_GDPS_WindDir_IsbL-0450_LatLon0.15_PT228H.grib2 2026-05-01 04:43 1.3M
20260501T00Z_MSC_GDPS_WindDir_IsbL-0500_LatLon0.15_PT228H.grib2 2026-05-01 04:43 1.4M
20260501T00Z_MSC_GDPS_WindDir_IsbL-0550_LatLon0.15_PT228H.grib2 2026-05-01 04:43 1.4M
20260501T00Z_MSC_GDPS_WindDir_IsbL-0600_LatLon0.15_PT228H.grib2 2026-05-01 04:43 1.5M
20260501T00Z_MSC_GDPS_WindDir_IsbL-0650_LatLon0.15_PT228H.grib2 2026-05-01 04:43 1.6M
20260501T00Z_MSC_GDPS_WindDir_IsbL-0700_LatLon0.15_PT228H.grib2 2026-05-01 04:43 1.6M
20260501T00Z_MSC_GDPS_WindDir_IsbL-0750_LatLon0.15_PT228H.grib2 2026-05-01 04:43 1.7M
20260501T00Z_MSC_GDPS_WindDir_IsbL-0800_LatLon0.15_PT228H.grib2 2026-05-01 04:43 1.8M
20260501T00Z_MSC_GDPS_WindDir_IsbL-0850_LatLon0.15_PT228H.grib2 2026-05-01 04:43 1.9M
20260501T00Z_MSC_GDPS_WindDir_IsbL-0875_LatLon0.15_PT228H.grib2 2026-05-01 04:43 2.0M
20260501T00Z_MSC_GDPS_WindDir_IsbL-0900_LatLon0.15_PT228H.grib2 2026-05-01 04:43 2.0M
20260501T00Z_MSC_GDPS_WindDir_IsbL-0925_LatLon0.15_PT228H.grib2 2026-05-01 04:43 2.0M
20260501T00Z_MSC_GDPS_WindDir_IsbL-0950_LatLon0.15_PT228H.grib2 2026-05-01 04:43 2.0M
20260501T00Z_MSC_GDPS_WindDir_IsbL-0970_LatLon0.15_PT228H.grib2 2026-05-01 04:43 2.0M
20260501T00Z_MSC_GDPS_WindDir_IsbL-0985_LatLon0.15_PT228H.grib2 2026-05-01 04:43 2.0M
20260501T00Z_MSC_GDPS_WindDir_IsbL-1000_LatLon0.15_PT228H.grib2 2026-05-01 04:43 2.1M
20260501T00Z_MSC_GDPS_WindDir_IsbL-1015_LatLon0.15_PT228H.grib2 2026-05-01 04:43 2.0M
20260501T00Z_MSC_GDPS_WindGust-Max_AGL-10m_LatLon0.15_PT228H.grib2 2026-05-01 04:43 2.3M
20260501T00Z_MSC_GDPS_WindGust-Min_AGL-10m_LatLon0.15_PT228H.grib2 2026-05-01 04:43 2.2M
20260501T00Z_MSC_GDPS_WindGust_AGL-10m_LatLon0.15_PT228H.grib2 2026-05-01 04:43 2.2M
20260501T00Z_MSC_GDPS_WindSpeed_AGL-10m_LatLon0.15_PT228H.grib2 2026-05-01 04:43 1.1M
20260501T00Z_MSC_GDPS_WindSpeed_AGL-120m_LatLon0.15_PT228H.grib2 2026-05-01 04:43 1.2M
20260501T00Z_MSC_GDPS_WindSpeed_AGL-40m_LatLon0.15_PT228H.grib2 2026-05-01 04:43 1.2M
20260501T00Z_MSC_GDPS_WindSpeed_AGL-80m_LatLon0.15_PT228H.grib2 2026-05-01 04:43 1.2M
20260501T00Z_MSC_GDPS_WindSpeed_IsbL-0001_LatLon0.15_PT228H.grib2 2026-05-01 04:43 657K
20260501T00Z_MSC_GDPS_WindSpeed_IsbL-0005_LatLon0.15_PT228H.grib2 2026-05-01 04:43 695K
20260501T00Z_MSC_GDPS_WindSpeed_IsbL-0010_LatLon0.15_PT228H.grib2 2026-05-01 04:43 624K
20260501T00Z_MSC_GDPS_WindSpeed_IsbL-0020_LatLon0.15_PT228H.grib2 2026-05-01 04:43 660K
20260501T00Z_MSC_GDPS_WindSpeed_IsbL-0030_LatLon0.15_PT228H.grib2 2026-05-01 04:43 856K
20260501T00Z_MSC_GDPS_WindSpeed_IsbL-0050_LatLon0.15_PT228H.grib2 2026-05-01 04:43 892K
20260501T00Z_MSC_GDPS_WindSpeed_IsbL-0100_LatLon0.15_PT228H.grib2 2026-05-01 04:43 1.1M
20260501T00Z_MSC_GDPS_WindSpeed_IsbL-0150_LatLon0.15_PT228H.grib2 2026-05-01 04:43 1.0M
20260501T00Z_MSC_GDPS_WindSpeed_IsbL-0175_LatLon0.15_PT228H.grib2 2026-05-01 04:43 1.0M
20260501T00Z_MSC_GDPS_WindSpeed_IsbL-0200_LatLon0.15_PT228H.grib2 2026-05-01 04:43 1.0M
20260501T00Z_MSC_GDPS_WindSpeed_IsbL-0225_LatLon0.15_PT228H.grib2 2026-05-01 04:43 1.1M
20260501T00Z_MSC_GDPS_WindSpeed_IsbL-0250_LatLon0.15_PT228H.grib2 2026-05-01 04:43 1.1M
20260501T00Z_MSC_GDPS_WindSpeed_IsbL-0275_LatLon0.15_PT228H.grib2 2026-05-01 04:43 1.1M
20260501T00Z_MSC_GDPS_WindSpeed_IsbL-0300_LatLon0.15_PT228H.grib2 2026-05-01 04:43 1.1M
20260501T00Z_MSC_GDPS_WindSpeed_IsbL-0350_LatLon0.15_PT228H.grib2 2026-05-01 04:43 1.1M
20260501T00Z_MSC_GDPS_WindSpeed_IsbL-0400_LatLon0.15_PT228H.grib2 2026-05-01 04:43 1.1M
20260501T00Z_MSC_GDPS_WindSpeed_IsbL-0450_LatLon0.15_PT228H.grib2 2026-05-01 04:43 1.1M
20260501T00Z_MSC_GDPS_WindSpeed_IsbL-0500_LatLon0.15_PT228H.grib2 2026-05-01 04:43 1.1M
20260501T00Z_MSC_GDPS_WindSpeed_IsbL-0550_LatLon0.15_PT228H.grib2 2026-05-01 04:43 1.1M
20260501T00Z_MSC_GDPS_WindSpeed_IsbL-0600_LatLon0.15_PT228H.grib2 2026-05-01 04:43 1.1M
20260501T00Z_MSC_GDPS_WindSpeed_IsbL-0650_LatLon0.15_PT228H.grib2 2026-05-01 04:43 1.5M
20260501T00Z_MSC_GDPS_WindSpeed_IsbL-0700_LatLon0.15_PT228H.grib2 2026-05-01 04:43 1.5M
20260501T00Z_MSC_GDPS_WindSpeed_IsbL-0750_LatLon0.15_PT228H.grib2 2026-05-01 04:43 1.7M
20260501T00Z_MSC_GDPS_WindSpeed_IsbL-0800_LatLon0.15_PT228H.grib2 2026-05-01 04:43 1.7M
20260501T00Z_MSC_GDPS_WindSpeed_IsbL-0850_LatLon0.15_PT228H.grib2 2026-05-01 04:43 1.7M
20260501T00Z_MSC_GDPS_WindSpeed_IsbL-0875_LatLon0.15_PT228H.grib2 2026-05-01 04:43 1.8M
20260501T00Z_MSC_GDPS_WindSpeed_IsbL-0900_LatLon0.15_PT228H.grib2 2026-05-01 04:43 1.9M
20260501T00Z_MSC_GDPS_WindSpeed_IsbL-0925_LatLon0.15_PT228H.grib2 2026-05-01 04:43 1.9M
20260501T00Z_MSC_GDPS_WindSpeed_IsbL-0950_LatLon0.15_PT228H.grib2 2026-05-01 04:43 1.9M
20260501T00Z_MSC_GDPS_WindSpeed_IsbL-0970_LatLon0.15_PT228H.grib2 2026-05-01 04:43 1.9M
20260501T00Z_MSC_GDPS_WindSpeed_IsbL-0985_LatLon0.15_PT228H.grib2 2026-05-01 04:43 1.9M
20260501T00Z_MSC_GDPS_WindSpeed_IsbL-1000_LatLon0.15_PT228H.grib2 2026-05-01 04:43 1.8M
20260501T00Z_MSC_GDPS_WindSpeed_IsbL-1015_LatLon0.15_PT228H.grib2 2026-05-01 04:43 1.8M
20260501T00Z_MSC_GDPS_WindU_AGL-10m_LatLon0.15_PT228H.grib2 2026-05-01 04:43 1.6M
20260501T00Z_MSC_GDPS_WindU_AGL-120m_LatLon0.15_PT228H.grib2 2026-05-01 04:43 965K
20260501T00Z_MSC_GDPS_WindU_AGL-40m_LatLon0.15_PT228H.grib2 2026-05-01 04:43 963K
20260501T00Z_MSC_GDPS_WindU_AGL-80m_LatLon0.15_PT228H.grib2 2026-05-01 04:43 965K
20260501T00Z_MSC_GDPS_WindU_IsbL-0001_LatLon0.15_PT228H.grib2 2026-05-01 04:43 509K
20260501T00Z_MSC_GDPS_WindU_IsbL-0005_LatLon0.15_PT228H.grib2 2026-05-01 04:43 694K
20260501T00Z_MSC_GDPS_WindU_IsbL-0010_LatLon0.15_PT228H.grib2 2026-05-01 04:43 700K
20260501T00Z_MSC_GDPS_WindU_IsbL-0020_LatLon0.15_PT228H.grib2 2026-05-01 04:43 728K
20260501T00Z_MSC_GDPS_WindU_IsbL-0030_LatLon0.15_PT228H.grib2 2026-05-01 04:43 733K
20260501T00Z_MSC_GDPS_WindU_IsbL-0050_LatLon0.15_PT228H.grib2 2026-05-01 04:43 756K
20260501T00Z_MSC_GDPS_WindU_IsbL-0100_LatLon0.15_PT228H.grib2 2026-05-01 04:43 859K
20260501T00Z_MSC_GDPS_WindU_IsbL-0150_LatLon0.15_PT228H.grib2 2026-05-01 04:43 1.0M
20260501T00Z_MSC_GDPS_WindU_IsbL-0175_LatLon0.15_PT228H.grib2 2026-05-01 04:43 1.0M
20260501T00Z_MSC_GDPS_WindU_IsbL-0200_LatLon0.15_PT228H.grib2 2026-05-01 04:43 1.0M
20260501T00Z_MSC_GDPS_WindU_IsbL-0225_LatLon0.15_PT228H.grib2 2026-05-01 04:43 1.1M
20260501T00Z_MSC_GDPS_WindU_IsbL-0250_LatLon0.15_PT228H.grib2 2026-05-01 04:43 851K
20260501T00Z_MSC_GDPS_WindU_IsbL-0275_LatLon0.15_PT228H.grib2 2026-05-01 04:43 880K
20260501T00Z_MSC_GDPS_WindU_IsbL-0300_LatLon0.15_PT228H.grib2 2026-05-01 04:43 872K
20260501T00Z_MSC_GDPS_WindU_IsbL-0350_LatLon0.15_PT228H.grib2 2026-05-01 04:43 887K
20260501T00Z_MSC_GDPS_WindU_IsbL-0400_LatLon0.15_PT228H.grib2 2026-05-01 04:43 1.1M
20260501T00Z_MSC_GDPS_WindU_IsbL-0450_LatLon0.15_PT228H.grib2 2026-05-01 04:43 1.1M
20260501T00Z_MSC_GDPS_WindU_IsbL-0500_LatLon0.15_PT228H.grib2 2026-05-01 04:43 1.1M
20260501T00Z_MSC_GDPS_WindU_IsbL-0550_LatLon0.15_PT228H.grib2 2026-05-01 04:43 1.1M
20260501T00Z_MSC_GDPS_WindU_IsbL-0600_LatLon0.15_PT228H.grib2 2026-05-01 04:43 1.1M
20260501T00Z_MSC_GDPS_WindU_IsbL-0650_LatLon0.15_PT228H.grib2 2026-05-01 04:43 1.2M
20260501T00Z_MSC_GDPS_WindU_IsbL-0700_LatLon0.15_PT228H.grib2 2026-05-01 04:43 1.2M
20260501T00Z_MSC_GDPS_WindU_IsbL-0750_LatLon0.15_PT228H.grib2 2026-05-01 04:43 1.3M
20260501T00Z_MSC_GDPS_WindU_IsbL-0800_LatLon0.15_PT228H.grib2 2026-05-01 04:43 1.4M
20260501T00Z_MSC_GDPS_WindU_IsbL-0850_LatLon0.15_PT228H.grib2 2026-05-01 04:43 1.4M
20260501T00Z_MSC_GDPS_WindU_IsbL-0875_LatLon0.15_PT228H.grib2 2026-05-01 04:43 1.4M
20260501T00Z_MSC_GDPS_WindU_IsbL-0900_LatLon0.15_PT228H.grib2 2026-05-01 04:43 1.5M
20260501T00Z_MSC_GDPS_WindU_IsbL-0925_LatLon0.15_PT228H.grib2 2026-05-01 04:43 1.5M
20260501T00Z_MSC_GDPS_WindU_IsbL-0950_LatLon0.15_PT228H.grib2 2026-05-01 04:43 1.4M
20260501T00Z_MSC_GDPS_WindU_IsbL-0970_LatLon0.15_PT228H.grib2 2026-05-01 04:43 1.4M
20260501T00Z_MSC_GDPS_WindU_IsbL-0985_LatLon0.15_PT228H.grib2 2026-05-01 04:43 1.4M
20260501T00Z_MSC_GDPS_WindU_IsbL-1000_LatLon0.15_PT228H.grib2 2026-05-01 04:43 1.4M
20260501T00Z_MSC_GDPS_WindU_IsbL-1015_LatLon0.15_PT228H.grib2 2026-05-01 04:43 1.3M
20260501T00Z_MSC_GDPS_WindV_AGL-10m_LatLon0.15_PT228H.grib2 2026-05-01 04:43 1.6M
20260501T00Z_MSC_GDPS_WindV_AGL-120m_LatLon0.15_PT228H.grib2 2026-05-01 04:43 967K
20260501T00Z_MSC_GDPS_WindV_AGL-40m_LatLon0.15_PT228H.grib2 2026-05-01 04:43 963K
20260501T00Z_MSC_GDPS_WindV_AGL-80m_LatLon0.15_PT228H.grib2 2026-05-01 04:43 967K
20260501T00Z_MSC_GDPS_WindV_IsbL-0001_LatLon0.15_PT228H.grib2 2026-05-01 04:43 792K
20260501T00Z_MSC_GDPS_WindV_IsbL-0005_LatLon0.15_PT228H.grib2 2026-05-01 04:43 770K
20260501T00Z_MSC_GDPS_WindV_IsbL-0010_LatLon0.15_PT228H.grib2 2026-05-01 04:43 791K
20260501T00Z_MSC_GDPS_WindV_IsbL-0020_LatLon0.15_PT228H.grib2 2026-05-01 04:43 930K
20260501T00Z_MSC_GDPS_WindV_IsbL-0030_LatLon0.15_PT228H.grib2 2026-05-01 04:43 933K
20260501T00Z_MSC_GDPS_WindV_IsbL-0050_LatLon0.15_PT228H.grib2 2026-05-01 04:43 970K
20260501T00Z_MSC_GDPS_WindV_IsbL-0100_LatLon0.15_PT228H.grib2 2026-05-01 04:43 847K
20260501T00Z_MSC_GDPS_WindV_IsbL-0150_LatLon0.15_PT228H.grib2 2026-05-01 04:43 1.0M
20260501T00Z_MSC_GDPS_WindV_IsbL-0175_LatLon0.15_PT228H.grib2 2026-05-01 04:43 1.0M
20260501T00Z_MSC_GDPS_WindV_IsbL-0200_LatLon0.15_PT228H.grib2 2026-05-01 04:43 831K
20260501T00Z_MSC_GDPS_WindV_IsbL-0225_LatLon0.15_PT228H.grib2 2026-05-01 04:43 901K
20260501T00Z_MSC_GDPS_WindV_IsbL-0250_LatLon0.15_PT228H.grib2 2026-05-01 04:43 905K
20260501T00Z_MSC_GDPS_WindV_IsbL-0275_LatLon0.15_PT228H.grib2 2026-05-01 04:43 931K
20260501T00Z_MSC_GDPS_WindV_IsbL-0300_LatLon0.15_PT228H.grib2 2026-05-01 04:43 923K
20260501T00Z_MSC_GDPS_WindV_IsbL-0350_LatLon0.15_PT228H.grib2 2026-05-01 04:43 938K
20260501T00Z_MSC_GDPS_WindV_IsbL-0400_LatLon0.15_PT228H.grib2 2026-05-01 04:43 881K
20260501T00Z_MSC_GDPS_WindV_IsbL-0450_LatLon0.15_PT228H.grib2 2026-05-01 04:43 884K
20260501T00Z_MSC_GDPS_WindV_IsbL-0500_LatLon0.15_PT228H.grib2 2026-05-01 04:43 890K
20260501T00Z_MSC_GDPS_WindV_IsbL-0550_LatLon0.15_PT228H.grib2 2026-05-01 04:43 1.1M
20260501T00Z_MSC_GDPS_WindV_IsbL-0600_LatLon0.15_PT228H.grib2 2026-05-01 04:43 1.1M
20260501T00Z_MSC_GDPS_WindV_IsbL-0650_LatLon0.15_PT228H.grib2 2026-05-01 04:43 1.2M
20260501T00Z_MSC_GDPS_WindV_IsbL-0700_LatLon0.15_PT228H.grib2 2026-05-01 04:43 1.2M
20260501T00Z_MSC_GDPS_WindV_IsbL-0750_LatLon0.15_PT228H.grib2 2026-05-01 04:43 1.3M
20260501T00Z_MSC_GDPS_WindV_IsbL-0800_LatLon0.15_PT228H.grib2 2026-05-01 04:43 1.3M
20260501T00Z_MSC_GDPS_WindV_IsbL-0850_LatLon0.15_PT228H.grib2 2026-05-01 04:43 1.4M
20260501T00Z_MSC_GDPS_WindV_IsbL-0875_LatLon0.15_PT228H.grib2 2026-05-01 04:43 1.4M
20260501T00Z_MSC_GDPS_WindV_IsbL-0900_LatLon0.15_PT228H.grib2 2026-05-01 04:43 1.4M
20260501T00Z_MSC_GDPS_WindV_IsbL-0925_LatLon0.15_PT228H.grib2 2026-05-01 04:43 1.4M
20260501T00Z_MSC_GDPS_WindV_IsbL-0950_LatLon0.15_PT228H.grib2 2026-05-01 04:43 1.4M
20260501T00Z_MSC_GDPS_WindV_IsbL-0970_LatLon0.15_PT228H.grib2 2026-05-01 04:43 1.4M
20260501T00Z_MSC_GDPS_WindV_IsbL-0985_LatLon0.15_PT228H.grib2 2026-05-01 04:43 1.4M
20260501T00Z_MSC_GDPS_WindV_IsbL-1000_LatLon0.15_PT228H.grib2 2026-05-01 04:43 1.7M
20260501T00Z_MSC_GDPS_WindV_IsbL-1015_LatLon0.15_PT228H.grib2 2026-05-01 04:43 1.6M